GBMKR EGNM-EGGP

Flight info

Callsign GBMKR
Flight time N/A
Altitude 11000
Route NELSA DCT CROFT DCT WAL
Aircraft S22T/L-SDGRY/S

Departure

Time 2026-05-05 19:04
Airport Leeds Bradford Airport (EGNM)

Arrival

Time N/A
Airport Liverpool John Lennon Airport (EGGP)
Time Latitude Longitude Altitude Speed Heading
2026-05-05 19:00 53.86368 -1.66286 660 ft 0 kts 139°
2026-05-05 19:02 53.86364 -1.66275 660 ft 5 kts 103°
2026-05-05 19:02 53.86459 -1.66256 661 ft 12 kts 36°
2026-05-05 19:02 53.86543 -1.66106 662 ft 19 kts 44°
2026-05-05 19:03 53.86597 -1.66065 662 ft 8 kts 309°
2026-05-05 19:03 53.86606 -1.66079 662 ft 0 kts 317°
2026-05-05 19:03 53.86607 -1.66081 662 ft 0 kts 317°
2026-05-05 19:03 53.86624 -1.66107 662 ft 25 kts 318°
2026-05-05 19:04 53.86952 -1.66613 699 ft 89 kts 320°
2026-05-05 19:04 53.87414 -1.67400 983 ft 96 kts 320°
2026-05-05 19:04 53.87816 -1.68288 1417 ft 90 kts 314°
2026-05-05 19:04 53.88154 -1.69204 1815 ft 100 kts 309°
2026-05-05 19:05 53.88501 -1.70258 2076 ft 100 kts 309°
2026-05-05 19:05 53.88827 -1.71265 2324 ft 96 kts 309°
2026-05-05 19:05 53.89122 -1.72271 2572 ft 95 kts 306°
2026-05-05 19:05 53.89357 -1.73330 2819 ft 103 kts 279°
2026-05-05 19:06 53.88913 -1.74295 3006 ft 120 kts 189°
2026-05-05 19:06 53.88030 -1.74283 3027 ft 137 kts 170°
2026-05-05 19:06 53.87167 -1.73665 3027 ft 139 kts 132°
2026-05-05 19:06 53.86407 -1.72586 3007 ft 141 kts 119°
2026-05-05 19:07 53.86020 -1.71136 2951 ft 132 kts 102°
2026-05-05 19:07 53.85752 -1.69673 2879 ft 130 kts 96°
2026-05-05 19:07 53.85462 -1.68176 2551 ft 136 kts 106°
2026-05-05 19:07 53.85072 -1.66813 2126 ft 122 kts 108°
2026-05-05 19:08 53.84773 -1.65686 1696 ft 94 kts 88°
2026-05-05 19:08 53.85089 -1.64955 1209 ft 83 kts 33°
2026-05-05 19:08 53.85631 -1.64758 875 ft 81 kts 350°
2026-05-05 19:08 53.86075 -1.65269 685 ft 75 kts 329°
2026-05-05 19:09 53.86404 -1.65742 667 ft 49 kts 316°
2026-05-05 19:09 53.86551 -1.66001 662 ft 6 kts 325°
2026-05-05 19:09 53.86552 -1.66002 662 ft 0 kts 323°
2026-05-05 19:09 53.86567 -1.66019 662 ft 6 kts 326°
2026-05-05 19:10 53.86665 -1.66174 661 ft 20 kts 315°
2026-05-05 19:10 53.86939 -1.66588 740 ft 76 kts 326°
2026-05-05 19:10 53.87431 -1.67033 968 ft 82 kts 360°
2026-05-05 19:10 53.88006 -1.67149 1323 ft 83 kts 18°
2026-05-05 19:11 53.88253 -1.66327 1644 ft 97 kts 95°
2026-05-05 19:11 53.87655 -1.65633 1950 ft 121 kts 173°
2026-05-05 19:11 53.86957 -1.66353 2231 ft 125 kts 245°
2026-05-05 19:11 53.86951 -1.67709 2542 ft 112 kts 298°
2026-05-05 19:12 53.87254 -1.68823 2895 ft 97 kts 328°
2026-05-05 19:12 53.87832 -1.68895 3199 ft 83 kts 34°
2026-05-05 19:12 53.88088 -1.68054 3369 ft 105 kts 108°
2026-05-05 19:12 53.87465 -1.67160 3433 ft 128 kts 140°
2026-05-05 19:13 53.86610 -1.66202 1400 ft 203 kts 142°